Spokane, WA
on Sunday, December 30, 2012

Sunday
Previous Day Next Day
Daily Summary
 ActualAverageRecord
Temperature
Mean Temperature °F 27°F  
Max Temperature 26°F 32°F 51°F (1920)
Min Temperature 19°F 22°F -25°F (1968)
Degree Days
Heating Degree Days 42 38  
Month to date heating degree days 993 1129  
Since 1 July heating degree days 2378 2796  
Cooling Degree Days 0 0  
Month to date cooling degree days 0 0  
Year to date cooling degree days 535 450  
Moisture
Dew Point 21°F   
Average Humidity 94    
Maximum Humidity 100    
Minimum Humidity 88    
Precipitation
Precipitation T in 0.07 in 0.85 in (1896)
Month to date precipitation 2.58 2.24  
Year to date precipitation 21.32 16.50  
Snow
Snow T in 0.50 in 5.40 in (1990)
Month to date snowfall 18.1 14.1  
Since 1 July snowfall 24.0 21.6  
Snow Depth 4.00 in   
Wind
Wind Speed 5 mph   
Max Wind Speed 9 mph   
Max Gust Speed 10 mph   
Visibility 4 miles   
Events Fog , Snow   

Key: T is trace of precipitation, MM is missing value
Source: NWS Daily Summary
Time(PST)TemperatureDew PointHumidity Pressure Visibility Wind DirectionWind SpeedGust SpeedPrecipitationEvents Conditions
12:43 AM 19.4°F 17.6°F 93% 30.13 in 0.8 miles Calm Calm - N/A   Overcast
12:53 AM 19.0°F 18.0°F 96% 30.23 in 0.2 miles Calm Calm - N/A Fog Light Freezing Fog
1:53 AM 19.9°F 19.0°F 96% 30.25 in 0.2 miles WSW 3.5 mph - 0.00 in Fog Light Freezing Fog
2:20 AM 19.4°F 19.4°F 100% 30.17 in 0.2 miles Calm Calm - N/A Fog Light Freezing Fog
2:53 AM 21.0°F 19.9°F 96% 30.27 in 0.2 miles Calm Calm - N/A Fog Light Freezing Fog
3:43 AM 21.2°F 19.4°F 93% 30.18 in 1.0 miles South 3.5 mph - N/A   Overcast
3:53 AM 21.0°F 19.9°F 96% 30.27 in 1.0 miles Calm Calm - N/A   Overcast
4:05 AM 21.2°F 19.4°F 93% 30.18 in 3.0 miles South 3.5 mph - N/A   Overcast
4:53 AM 21.0°F 19.0°F 92% 30.27 in 3.0 miles South 4.6 mph - N/A   Overcast
5:09 AM 21.2°F 19.4°F 93% 30.18 in 3.0 miles SSE 5.8 mph - N/A   Overcast
5:53 AM 21.0°F 19.9°F 96% 30.28 in 7.0 miles South 3.5 mph - N/A   Overcast
6:53 AM 21.9°F 19.9°F 92% 30.29 in 7.0 miles Calm Calm - N/A   Overcast
7:53 AM 21.9°F 19.9°F 92% 30.30 in 7.0 miles SSE 4.6 mph - N/A   Overcast
8:47 AM 21.2°F 19.4°F 93% 30.22 in 7.0 miles South 4.6 mph - 0.00 in Snow Light Snow
8:53 AM 21.9°F 19.9°F 92% 30.32 in 6.0 miles South 4.6 mph - 0.00 in Snow Light Snow
9:53 AM 23.0°F 21.0°F 92% 30.34 in 8.0 miles South 4.6 mph - 0.00 in   Overcast
10:53 AM 23.0°F 21.0°F 92% 30.33 in 10.0 miles South 6.9 mph - N/A   Overcast
11:53 AM 24.1°F 21.9°F 91% 30.33 in 9.0 miles SSW 5.8 mph - N/A   Overcast
12:17 PM 24.8°F 21.2°F 86% 30.23 in 8.0 miles SSW 5.8 mph - 0.00 in Snow Light Snow
12:53 PM 25.0°F 23.0°F 92% 30.32 in 7.0 miles SSW 4.6 mph - 0.00 in Snow Light Snow
1:53 PM 25.0°F 23.0°F 92% 30.32 in 8.0 miles South 6.9 mph - 0.00 in Snow Light Snow
2:53 PM 25.0°F 23.0°F 92% 30.33 in 8.0 miles SSW 6.9 mph - 0.00 in   Overcast
3:53 PM 25.0°F 23.0°F 92% 30.34 in 2.0 miles South 6.9 mph - N/A   Overcast
4:53 PM 25.0°F 23.0°F 92% 30.35 in 2.0 miles SW 5.8 mph - 0.00 in   Overcast
5:53 PM 24.1°F 24.1°F 100% 30.35 in 2.0 miles SW 5.8 mph - 0.00 in   Overcast
6:11 PM 24.8°F 23.0°F 93% 30.25 in 0.5 miles SW 4.6 mph - N/A   Overcast
6:53 PM 24.1°F 24.1°F 100% 30.35 in 0.5 miles SW 3.5 mph - N/A Fog Light Freezing Fog
7:53 PM 25.0°F 24.1°F 96% 30.34 in 0.5 miles SW 4.6 mph - N/A Fog Light Freezing Fog
8:53 PM 25.0°F 24.1°F 96% 30.33 in 0.5 miles WSW 4.6 mph - N/A   Overcast
9:53 PM 25.0°F 23.0°F 92% 30.34 in 7.0 miles WSW 6.9 mph - N/A   Overcast
10:53 PM 25.0°F 23.0°F 92% 30.36 in 10.0 miles West 5.8 mph - N/A   Overcast
11:53 PM 24.1°F 21.9°F 91% 30.35 in 10.0 miles West 6.9 mph - N/A   Overcast
Moon Phase
Dec. 30 Jan. 04 Jan. 11 Jan. 18 Jan. 26
Sunrise:07:38 AM (PST) Moon Rise:06:55 PM (PST)12/30
Sunset:04:07 PM (PST) Moon Set:08:39 AM (PST)12/30

Copyright © 2014 The Weather Underground, Inc.